GW7302 Weather Reports


Display with metric or nautical units.
time (UTC)temp
F
wind
direction
speed
MPH
gust
MPH
rain 1hr
in
rain 24hr
in
rain mn
in
humidity
%
barometer
mb
20260505094514 49 5 0.0 2.0 0.00 0.00 0.00 91 1011.6
20260505093028 50 352 0.0 1.0 0.00 0.00 0.00 90 1011.6
20260505091524 51 324 0.0 2.0 0.00 0.00 0.00 89 1011.6
20260505090018 52 325 0.0 2.0 0.00 0.00 0.00 87 1011.5
20260505084520 53 11 1.0 2.0 0.00 0.00 0.00 86 1011.3
20260505083025 53 349 0.0 2.0 0.00 0.00 0.00 85 1011.4
20260505081524 53 349 0.0 0.0 0.00 0.00 0.00 84 1011.4
20260505080024 53 349 0.0 0.0 0.00 0.00 0.00 82 1011.2
20260505074525 54 349 0.0 0.0 0.00 0.00 0.00 81 1011.5
20260505073027 54 349 0.0 0.0 0.00 0.00 0.00 80 1011.4
20260505071526 55 349 0.0 2.0 0.00 0.00 0.00 78 1011.4
20260505070026 55 349 0.0 2.0 0.00 0.00 0.00 79 1011.6
20260505064526 55 349 0.0 2.0 0.00 0.00 0.00 78 1011.5
20260505063026 55 349 0.0 2.0 0.00 0.00 0.00 79 1011.6
20260505061538 55 9 0.0 2.0 0.00 0.00 0.00 79 1011.6
20260505060027 56 13 1.0 3.0 0.00 0.00 0.00 75 1011.5
20260505054527 57 5 0.0 2.0 0.00 0.00 0.00 70 1011.5
20260505053033 56 153 0.0 4.0 0.00 0.00 0.00 73 1011.5
20260505051530 52 271 1.0 3.0 0.00 0.00 0.00 80 1011.6
20260505041516 51 215 0.0 2.0 0.00 0.00 0.00 82 1011.8
20260505040018 51 103 0.0 2.0 0.00 0.00 0.00 81 1011.5
20260505034520 52 66 1.0 2.0 0.00 0.00 0.00 80 1011.2
20260505033025 52 74 0.0 1.0 0.00 0.00 0.00 79 1011.3
20260505031523 53 74 0.0 2.0 0.00 0.00 0.00 80 1011.2
20260505030024 53 74 0.0 2.0 0.00 0.00 0.00 78 1011.3
20260505024506 54 74 0.0 2.0 0.00 0.00 0.00 76 1011.3
20260505023004 55 65 0.0 4.0 0.00 0.00 0.00 73 1011.3
20260505021504 56 80 0.0 16.0 0.00 0.00 0.00 72 1011.6
20260505020007 56 78 0.0 2.0 0.00 0.00 0.00 72 1011.7
20260505014504 57 66 0.0 2.0 0.00 0.00 0.00 68 1011.6
20260505013004 59 52 1.0 2.0 0.00 0.00 0.00 65 1011.5
20260505011506 60 82 0.0 2.0 0.00 0.00 0.00 60 1011.4
20260505010009 61 59 0.0 3.0 0.00 0.00 0.00 57 1011.3
20260505004510 61 360 0.0 2.0 0.00 0.00 0.00 58 1011.1
20260505003020 65 82 0.0 4.0 0.00 0.00 0.00 49 1010.9
20260505001514 66 88 0.0 6.0 0.00 0.00 0.00 43 1010.9
20260505000014 67 102 2.0 5.0 0.00 0.00 0.00 43 1010.7
20260504234515 68 182 3.0 7.0 0.00 0.00 0.00 41 1010.7
20260504233016 69 54 1.0 9.0 0.00 0.00 0.00 39 1010.7
20260504231517 69 120 3.0 8.0 0.00 0.00 0.00 40 1010.5
20260504230017 70 171 1.0 5.0 0.00 0.00 0.00 40 1010.4
20260504224521 71 134 5.0 11.0 0.00 0.00 0.00 39 1010.4
20260504223022 71 184 3.0 11.0 0.00 0.00 0.00 37 1010.3
20260504221519 71 207 4.0 15.0 0.00 0.00 0.00 39 1010.6
20260504220022 72 124 3.0 11.0 0.00 0.00 0.00 37 1010.6
20260504214524 72 236 4.0 9.0 0.00 0.00 0.00 38 1010.3
20260504213023 73 187 2.0 11.0 0.00 0.00 0.00 36 1010.5
20260504211524 72 223 5.0 12.0 0.00 0.00 0.00 38 1010.5
20260504210031 73 226 2.0 11.0 0.00 0.00 0.00 41 1010.5
20260504204527 73 211 5.0 13.0 0.00 0.00 0.00 38 1010.5
20260504203039 74 296 5.0 11.0 0.00 0.00 0.00 39 1010.6
20260504201525 73 233 2.0 13.0 0.00 0.00 0.00 39 1010.9
20260504200011 72 205 7.0 14.0 0.00 0.00 0.00 41 1011.1
20260504194512 72 225 6.0 12.0 0.00 0.00 0.00 39 1011.2
20260504193017 73 267 3.0 15.0 0.00 0.00 0.00 37 1011.3
20260504191522 73 232 2.0 11.0 0.00 0.00 0.00 37 1011.4
20260504190014 72 227 6.0 13.0 0.00 0.00 0.00 40 1011.6
20260504184519 73 189 2.0 10.0 0.00 0.00 0.00 41 1011.9
20260504183018 71 245 7.0 15.0 0.00 0.00 0.00 38 1012.0
20260504181520 72 248 3.0 10.0 0.00 0.00 0.00 38 1012.2
20260504180017 71 230 4.0 12.0 0.00 0.00 0.00 39 1012.4
20260504174501 70 136 4.0 13.0 0.00 0.00 0.00 38 1012.6
20260504173002 71 194 4.0 12.0 0.00 0.00 0.00 42 1013.0
20260504171502 69 269 4.0 12.0 0.00 0.00 0.00 39 1013.1